Location: Blienschwiller
(48.3416°N, 7.4182°E)
Time: 05:09:22
(UTC+00:00)

ATLAS 2AS CENTAUR R/B - Pass Details

Date: 18 February 2020
Orbit: 929 x 1283 km, 63.7° (Epoch: 26 March)

Event Time Altitude Azimuth Distance (km) Brightness Sun altitude
Exits shadow 03:26:51 20° 330° (NNW) 2,585 4.5 -31.4°
Maximum altitude 03:30:17 26° 5° (N) 2,230 4.5 -30.8°
Drops below altitude 10° 03:36:27 10° 60° (ENE) 3,125 6.0 -29.8°
Sets 03:39:42 0° 73° (ENE) 4,031 6.9 -29.3°
